TimeCST,TemperatureF,Dew PointF,Humidity,Sea Level PressureIn,VisibilityMPH,Wind Direction,Wind SpeedMPH,Gust SpeedMPH,PrecipitationIn,Events,Conditions,WindDirDegrees,DateUTC
12:51 AM,48.9,39.9,71,29.91,10.0,South,5.8,-,N/A,,Partly Cloudy,180,2013-02-27 06:51:00
1:51 AM,46.9,39.0,74,29.91,10.0,SSW,6.9,-,N/A,,Clear,200,2013-02-27 07:51:00
2:51 AM,46.0,37.9,73,29.91,10.0,SSW,5.8,-,N/A,,Clear,200,2013-02-27 08:51:00
3:51 AM,45.0,39.0,80,29.89,10.0,South,5.8,-,N/A,,Clear,170,2013-02-27 09:51:00
4:51 AM,48.0,43.0,83,29.89,10.0,SE,4.6,-,N/A,,Clear,140,2013-02-27 10:51:00
5:51 AM,46.0,41.0,83,29.92,10.0,Calm,Calm,-,N/A,,Clear,0,2013-02-27 11:51:00
6:51 AM,46.0,41.0,83,29.94,10.0,Calm,Calm,-,N/A,,Clear,0,2013-02-27 12:51:00
7:51 AM,53.6,44.6,72,29.99,10.0,North,4.6,-,N/A,,Partly Cloudy,350,2013-02-27 13:51:00
8:51 AM,62.6,51.8,68,30.04,10.0,NW,11.5,-,N/A,,Partly Cloudy,320,2013-02-27 14:51:00
9:51 AM,64.9,48.0,54,30.07,10.0,NNW,13.8,-,N/A,,Clear,330,2013-02-27 15:51:00
10:51 AM,69.1,50.0,51,30.06,10.0,NW,8.1,-,N/A,,Clear,320,2013-02-27 16:51:00
11:51 AM,73.9,46.0,37,30.06,10.0,North,10.4,-,N/A,,Clear,360,2013-02-27 17:51:00
12:51 PM,77.0,39.9,26,30.04,10.0,NNW,17.3,25.3,N/A,,Clear,340,2013-02-27 18:51:00
1:51 PM,81.0,28.9,15,30.03,10.0,NNW,17.3,28.8,N/A,,Clear,340,2013-02-27 19:51:00
2:51 PM,80.1,23.0,12,30.03,10.0,North,18.4,31.1,N/A,,Clear,350,2013-02-27 20:51:00
3:51 PM,78.1,25.0,14,30.03,10.0,North,21.9,28.8,N/A,,Clear,360,2013-02-27 21:51:00
4:51 PM,73.0,28.9,20,30.04,10.0,North,17.3,-,N/A,,Clear,360,2013-02-27 22:51:00
5:51 PM,70.0,28.0,21,30.06,10.0,North,16.1,-,N/A,,Clear,360,2013-02-27 23:51:00
6:51 PM,64.9,30.9,28,30.10,10.0,North,9.2,-,N/A,,Clear,10,2013-02-28 00:51:00
7:51 PM,63.0,28.0,27,30.13,10.0,North,12.7,-,N/A,,Clear,360,2013-02-28 01:51:00
8:51 PM,55.9,30.9,39,30.16,10.0,North,8.1,-,N/A,,Clear,10,2013-02-28 02:51:00
9:51 PM,55.0,30.9,40,30.18,10.0,NNE,6.9,-,N/A,,Clear,30,2013-02-28 03:51:00
10:51 PM,57.0,32.0,39,30.19,10.0,NE,11.5,-,N/A,,Clear,40,2013-02-28 04:51:00
11:51 PM,53.1,30.0,41,30.19,10.0,NNE,6.9,-,N/A,,Clear,20,2013-02-28 05:51:00